Temp_Advection
nan nan nan nan nan nan nan nan nan nan nan nan nan nan nan nan nan nan nan nan nan nan nan nan nan nan nan nan nan nan nan nan nan nan nan nan nan nan nan nan nan nan nan nan nan nan nan nan nan nan nan nan nan nan
nan -0 -0 -0 -0 0 0 0 0 0 0 -0 -0 0 0 -0 0 -0 -0 -0 0 -0 -1 -1 -1 -1 -1 -1 -0 -0 -0 -0 -0 -0 -0 -0 -0 -0 0 0 -0 0 0 -0 -0 -0 -0 -0 -0 2 0 -0 1 nan
nan 0 0 -0 -0 0 0 0 -0 0 0 0 -0 -0 0 -0 0 0 -0 0 0 -0 -1 -3 -4 0 -0 0 1 -1 -1 -0 0 1 0 -0 -0 0 0 0 0 -0 -0 0 -0 -0 0 1 1 1 1 2 2 nan
nan -0 -0 0 -0 -0 0 0 0 -0 0 0 -0 -0 -0 -0 0 0 -0 0 -0 -0 -0 -1 -1 -0 -0 -0 -1 -2 -0 1 -0 0 0 -0 0 -0 -0 0 0 -0 0 -0 -0 0 0 0 -0 1 2 2 1 nan
nan 0 -0 -0 0 0 0 0 0 0 0 -0 -0 -0 0 0 -0 -0 -0 -0 -0 -0 -0 -2 -5 -0 -0 -0 -0 0 1 1 0 0 -0 -0 -0 -0 0 0 -0 -0 -0 0 0 -1 0 1 1 1 0 0 1 nan
nan -0 0 -0 -0 0 0 0 0 0 -0 -0 -0 -0 0 0 -0 -0 -0 -0 0 -0 -0 -0 -2 -1 -0 -0 0 -0 0 -0 -0 0 -0 -0 0 -0 -0 -0 -0 -0 1 0 0 2 -0 1 1 1 1 -0 0 nan
nan -0 -0 0 -0 -0 0 0 0 0 -0 -0 -0 0 0 -0 -0 -0 0 0 0 -0 -0 -0 -1 -1 -0 0 0 -0 -0 -0 -0 0 0 -0 -0 -0 -0 -0 -0 1 2 1 1 0 0 0 0 1 0 0 0 nan
nan -0 -0 -0 0 -0 -0 0 0 -0 -0 -0 -0 0 0 -0 -0 -0 0 -0 -0 -0 0 -0 -1 -1 -0 0 -0 0 -0 0 0 0 -0 -0 -0 -0 -0 -0 -0 1 2 1 0 -0 -0 1 1 0 0 -0 -0 nan
nan -0 -0 -0 -0 0 -0 -0 -0 0 -0 -0 -0 -0 0 -0 0 0 0 0 -0 -0 -0 -0 -0 -1 -0 0 0 0 0 0 0 -0 0 -0 -0 -0 -0 -0 0 1 0 0 1 0 0 0 -0 -0 -1 -1 -1 nan
nan 0 0 0 0 -0 -0 -0 0 0 0 0 -0 -0 0 0 -0 -0 -0 0 -0 0 0 -0 -0 -0 -0 -0 -0 0 -0 0 0 -0 0 -0 -0 -0 0 1 0 1 1 1 -0 -1 -1 -1 -0 -0 -1 -1 -0 nan
nan 0 -0 -0 0 -0 0 0 0 0 0 0 -0 -0 -0 -0 -0 -0 0 0 -0 -0 -0 -0 -0 -0 -0 -0 -0 0 0 0 0 -0 0 -0 -0 -0 0 0 0 0 -0 -0 -0 -0 -0 -0 -0 -0 -0 -0 -0 nan
nan -0 0 0 -0 -0 0 0 0 0 0 0 -0 -0 -0 -0 -0 -0 -0 -0 -0 -0 -0 -0 -0 -0 -0 0 0 -0 0 0 0 -0 -0 -0 -0 0 0 0 0 0 0 0 0 0 -0 -0 -0 -0 -0 -0 -0 nan
nan 0 -0 -0 -0 0 0 0 0 0 0 0 0 -0 -0 -0 0 0 0 0 0 -0 -0 0 -0 -0 -0 -0 -0 0 -0 -0 0 0 -0 -0 0 0 0 0 0 0 0 -0 -0 -0 0 0 -0 -0 -0 -0 -0 nan
nan -0 -0 0 0 -0 0 0 0 0 0 0 0 0 0 -0 0 -0 -0 -0 -0 0 0 -0 -0 0 -0 -0 0 0 0 0 -0 -0 -0 -0 0 0 0 0 0 -0 0 0 0 0 0 0 -0 -0 -0 -0 -0 nan
nan 0 0 0 0 0 0 0 0 0 0 0 0 0 0 -0 -0 -0 0 -0 0 0 0 0 -0 -0 -0 -0 0 -0 -0 -0 -0 -0 -0 0 0 0 0 0 -0 0 0 0 0 0 0 0 0 0 0 0 0 nan
nan 0 -0 0 0 0 0 0 0 0 0 0 0 0 0 0 -0 -0 0 0 1 0 -0 -0 -0 -0 -0 -0 0 -0 -0 -0 -0 -0 0 0 0 0 0 0 0 0 0 0 0 0 0 0 0 0 0 0 0 nan
nan 0 0 0 1 1 0 0 0 0 0 0 -0 0 0 0 -0 -0 0 1 0 -0 -0 -0 0 -0 -0 0 -0 -0 -0 -0 0 0 0 0 0 0 0 0 0 0 0 0 0 0 0 0 0 0 0 0 0 nan
nan 0 0 0 0 0 0 0 0 0 0 0 0 0 1 0 1 1 1 1 0 -0 0 -0 -0 -0 0 -0 -0 -0 -0 0 0 0 0 0 0 0 0 0 0 0 0 0 0 0 0 0 0 0 0 0 0 nan
nan 0 0 0 -0 -0 0 0 0 0 0 0 0 0 0 0 0 0 0 0 -0 -0 -0 -0 -0 0 0 -0 0 0 0 0 0 0 0 0 0 0 0 -0 0 0 0 -0 -0 -0 -0 0 -0 -0 -0 -0 -0 nan
nan 0 0 0 0 -0 -0 -0 -0 -0 -0 -0 -0 -0 -0 -0 -0 -0 -1 -1 -0 -0 -1 -0 0 0 0 0 0 0 0 0 0 0 0 -0 0 0 0 0 0 0 -0 -0 -0 -0 -0 -0 -0 -0 -0 -0 -0 nan
nan -0 -0 -0 -0 -0 -0 -0 -0 -0 -0 -0 -0 -0 -0 -1 -1 -1 -1 -1 -1 -0 0 0 0 0 0 0 0 0 0 0 0 0 -0 0 0 0 0 0 -0 -0 -0 -0 -0 -0 -0 -0 -0 -0 -0 -0 -0 nan
nan -0 -0 -0 -0 -0 -0 -0 -0 -0 -0 -0 -0 -0 -0 -0 -0 -0 -0 -0 -0 0 0 0 -0 -0 0 0 0 0 0 0 0 0 0 0 0 -0 -0 -0 -0 -0 -0 -1 -1 -1 -1 -1 -0 -0 -0 -0 -0 nan
nan -0 -0 -0 -0 -0 0 0 0 -0 -0 -0 -0 -0 -0 -0 0 0 0 0 0 0 0 0 0 0 0 0 0 0 0 0 0 -0 -0 -0 0 -0 -0 -0 -0 -0 -0 -1 -1 -1 -1 -1 -1 -1 -1 -1 -1 nan
nan -0 0 -0 -0 -0 -0 -0 0 -0 0 0 -0 -0 -0 -0 -0 0 0 0 1 0 0 1 1 1 0 0 0 0 0 0 0 -0 -0 0 0 0 -0 -0 -0 -0 -1 -1 -1 -1 -1 -1 -1 -1 -1 -1 -1 nan
nan 0 0 0 0 0 -0 -0 0 0 0 -0 -0 -0 -0 0 0 0 -0 -0 0 0 0 0 0 0 0 0 0 -0 -0 -0 -0 -0 -0 -0 -0 -0 -0 -0 -0 -0 -0 -1 -1 -1 -1 -1 -1 -1 -1 -1 -1 nan
nan 0 0 0 0 -0 -0 0 0 -0 -0 -0 -0 -0 -0 -0 0 0 -0 0 0 0 0 0 0 0 -0 -0 -0 -0 -0 -0 -0 -0 -0 -0 -0 -0 -0 -0 -0 -0 -0 -1 -1 -1 -0 -0 -0 -0 -0 -0 -0 nan
nan 0 0 0 0 0 -0 -0 0 0 -0 0 -0 -0 0 0 0 -0 0 0 0 -0 0 0 -0 -0 -0 -0 -0 -0 -0 -0 -0 -0 -0 0 0 0 -0 -0 -0 -0 -0 -0 -0 -0 -0 -0 -0 -0 -0 -0 -0 nan
nan -0 -0 0 0 -0 -0 -0 -0 -0 -0 -0 -0 0 0 0 -0 0 -0 0 -0 -0 -0 -0 -0 -0 -0 -1 -1 -1 -1 -1 -0 -0 -0 -0 -0 -0 -0 -0 -0 -0 -0 -0 -0 0 -0 -0 -0 -0 -0 -0 -0 nan
nan 0 0 0 -0 -0 -0 -0 -0 0 -0 -0 -0 0 0 -0 -0 0 0 -0 0 -0 -0 -1 -1 -0 -1 -1 -1 -1 -1 -1 -1 -0 -0 -0 -0 -0 -0 0 -0 -0 -0 -0 -0 -0 -0 -0 -0 -0 -1 -0 -0 nan
nan 0 -0 0 0 0 0 0 0 -0 -0 -1 -2 -2 -1 -0 1 0 -0 -1 -1 -1 -1 -1 -0 -1 -1 -1 -1 -1 -1 -1 -1 -1 -1 -1 -1 -0 -1 -1 -1 -1 -1 -0 -0 -1 -1 -1 -1 -1 -1 -1 -1 nan
nan 0 0 -0 -0 -0 0 -0 0 -0 -0 -1 -0 -1 -1 -1 -1 -1 -1 -1 -1 -1 -0 -0 -1 -1 -1 -1 -1 -1 -1 -1 -1 -1 -1 -1 -1 -1 -1 -0 -1 -1 -1 -1 -1 -1 -1 -1 -1 -1 -1 -1 -1 nan
nan 0 0 -0 -0 -0 -0 0 0 -0 -0 -0 -1 -0 -0 -1 -0 -0 -0 -0 -0 -0 -1 -1 -1 -1 -1 -1 -1 -1 -1 -1 -1 -1 -1 -1 -1 -1 -1 -1 -1 -1 -1 -1 -1 -1 -1 -1 -1 -1 -1 -1 -1 nan
nan nan nan nan nan nan nan nan nan nan nan nan nan nan nan nan nan nan nan nan nan nan nan nan nan nan nan nan nan nan nan nan nan nan nan nan nan nan nan nan nan nan nan nan nan nan nan nan nan nan nan nan nan nan
Wind_Speed
29 27 27 27 25 24 23 24 20 19 17 17 17 17 15 13 12 15 16 11 15 12 29 30 28 20 16 11 3 9 10 2 3 2 2 3 1 1 1 12 14 6 2 4 2 3 1 18 9 6 8 19 22 26
27 26 24 24 23 22 21 18 17 17 17 18 16 15 13 12 12 13 16 10 13 18 17 19 29 30 28 23 17 9 6 6 3 1 2 3 2 2 2 4 6 7 5 3 2 1 7 16 5 20 21 30 29 34
27 26 27 26 23 20 17 17 18 16 15 15 12 13 13 10 9 11 13 13 11 16 30 28 29 8 12 17 21 11 7 5 3 9 3 3 2 1 1 2 3 2 5 5 3 6 8 17 16 20 25 31 29 25
26 24 23 22 21 17 13 16 16 14 15 13 12 11 10 10 10 12 14 12 6 7 5 10 10 13 8 15 16 26 23 15 18 13 4 3 1 2 2 1 2 2 2 8 6 4 4 14 15 21 27 30 28 25
27 25 22 20 17 14 13 16 12 13 14 10 9 8 7 7 8 10 13 13 10 8 5 15 28 5 3 10 11 14 19 23 16 3 2 2 1 1 2 2 2 5 3 1 5 17 9 16 11 20 26 29 25 22
27 22 19 14 12 9 8 8 10 11 8 7 5 5 6 7 8 8 4 4 14 11 6 4 10 5 2 3 17 12 13 13 9 3 4 3 3 1 2 2 9 19 9 5 6 25 29 27 27 23 30 26 23 22
20 16 13 12 7 5 6 9 8 9 5 4 5 6 6 6 8 7 3 5 12 2 4 5 5 4 2 7 7 11 12 8 5 3 2 6 7 4 3 4 14 16 24 22 27 26 23 19 17 22 22 20 18 18
16 14 9 6 3 5 7 6 5 4 3 5 4 7 7 8 10 7 4 7 8 6 5 3 5 7 1 2 2 6 6 7 5 2 4 2 3 5 4 6 11 11 24 27 28 29 26 17 17 16 14 13 13 15
15 12 7 4 4 6 4 3 3 3 3 4 5 8 6 1 1 1 5 1 3 7 3 2 2 3 7 1 1 4 3 1 1 3 3 3 3 5 3 7 12 15 15 20 21 21 17 17 16 15 13 13 13 13
12 10 6 5 8 8 6 6 4 2 4 4 3 3 2 2 1 4 3 2 4 5 5 3 4 4 4 5 3 1 1 2 3 2 4 3 3 7 11 12 11 15 20 9 15 20 16 18 17 16 15 13 12 12
11 11 10 10 11 8 9 8 7 5 4 6 5 3 4 3 2 2 2 2 2 2 5 7 6 3 2 0 2 2 3 0 3 2 3 3 3 4 9 11 12 13 14 16 15 14 14 12 14 15 14 13 12 11
7 10 9 7 6 8 7 6 6 6 7 7 5 5 4 2 1 1 2 3 3 3 3 3 4 5 5 3 1 3 2 2 3 2 4 3 1 5 7 10 12 13 15 16 16 15 14 13 13 13 14 14 14 12
13 12 11 9 6 6 4 10 12 9 6 3 5 4 4 2 5 3 4 3 3 3 4 9 4 3 5 4 2 4 5 2 3 4 3 2 2 5 8 11 16 19 20 19 17 16 14 14 13 13 14 12 12 11
13 12 10 8 8 6 8 10 11 13 5 4 5 5 3 3 2 1 2 3 7 8 16 6 4 3 5 4 3 3 3 2 4 3 3 0 4 7 13 14 14 14 13 13 13 13 12 13 14 13 13 10 11 10
11 10 10 11 10 7 8 13 15 11 5 5 3 3 3 7 5 11 11 10 12 12 7 4 3 5 3 3 3 3 4 5 4 3 3 6 4 4 6 8 7 8 9 8 7 7 8 10 12 11 10 8 9 6
10 10 14 13 13 14 15 11 8 7 4 5 6 5 12 2 7 14 16 19 20 10 3 3 2 4 5 2 5 5 3 3 2 3 6 5 5 4 4 4 6 7 8 8 7 8 9 9 9 10 11 9 7 4
10 14 14 16 18 14 13 8 6 6 7 6 4 8 12 5 6 11 13 24 18 7 3 3 5 3 2 4 3 3 2 2 6 7 6 4 4 3 3 3 5 7 7 9 9 9 7 9 11 8 7 9 8 6
11 14 17 20 18 8 12 11 5 6 3 3 6 18 15 9 14 16 20 24 15 9 5 3 2 6 3 3 3 3 5 5 7 7 5 6 6 5 4 5 6 7 8 7 9 9 7 9 12 6 5 7 8 8
12 14 16 18 17 10 6 7 6 5 3 7 12 19 10 12 13 13 20 20 12 10 4 4 5 3 2 3 3 5 7 8 8 7 3 3 5 7 6 6 6 7 7 8 7 7 9 9 9 8 7 8 8 9
11 13 15 16 14 6 4 4 5 4 7 9 12 17 6 10 13 15 16 20 13 6 8 4 1 2 3 5 6 6 5 6 9 9 4 4 9 8 8 8 8 5 5 5 8 8 6 5 5 5 7 6 9 9
11 15 15 13 6 8 4 5 3 5 6 6 13 13 6 10 10 15 15 17 10 5 4 4 4 3 3 5 7 7 7 5 6 6 6 9 8 9 8 5 2 0 3 6 8 7 5 6 7 7 6 9 10 10
13 14 12 8 4 5 3 5 6 7 4 8 8 10 5 5 7 10 15 7 4 5 4 4 6 7 7 6 5 4 3 4 5 5 6 6 8 10 9 11 9 10 11 11 11 11 10 10 10 10 10 9 10 10
10 10 6 5 3 4 3 8 4 6 3 9 8 3 3 6 8 12 4 5 3 6 7 7 7 7 8 9 9 9 7 6 4 2 5 3 3 3 6 5 6 8 9 12 14 15 16 17 17 17 16 16 16 16
7 5 4 6 6 4 5 4 6 5 5 4 3 4 4 5 10 4 2 5 10 12 12 14 17 14 9 5 7 9 7 4 4 5 2 2 5 4 2 6 9 11 12 15 19 21 21 19 18 17 16 15 14 14
4 3 3 3 2 3 3 4 2 2 2 1 1 2 3 8 4 4 3 2 3 5 3 4 6 7 7 10 8 8 7 5 8 10 6 3 3 6 9 9 9 10 14 21 25 24 17 13 13 14 15 15 13 12
3 3 1 2 1 1 2 3 2 1 1 1 2 1 1 1 1 1 3 7 8 9 9 11 11 13 15 14 13 13 13 12 12 12 9 7 6 8 8 8 10 13 19 23 22 18 10 13 15 13 11 9 10 12
3 3 3 3 3 4 4 4 4 2 2 1 1 0 1 3 2 3 6 8 10 11 10 10 12 12 10 11 11 11 12 14 13 12 12 9 8 6 7 10 12 16 19 20 17 12 12 15 16 13 11 10 11 13
4 3 4 4 3 4 3 3 2 2 2 1 3 3 2 2 1 7 4 4 3 3 4 9 10 10 10 12 15 18 21 20 14 10 8 7 7 8 9 12 15 18 19 18 11 11 13 15 17 18 18 16 14 12
4 4 3 4 4 4 4 3 3 3 1 2 3 2 3 6 11 7 9 10 10 7 9 9 10 11 14 17 20 24 22 18 13 10 10 11 13 12 13 16 17 18 18 14 13 15 15 16 16 15 14 12 10 9
3 8 4 2 1 2 3 4 4 10 12 11 20 26 29 30 23 16 15 16 14 13 12 12 14 18 22 26 27 21 15 13 14 14 14 14 14 15 19 21 17 15 13 13 14 16 16 17 17 18 17 17 16 15
7 5 4 3 3 3 3 5 3 5 7 17 20 25 22 19 26 26 22 21 17 11 10 15 19 24 27 27 23 16 13 14 14 16 17 18 19 18 16 15 15 15 15 17 18 19 19 20 19 19 18 18 17 16
7 6 6 4 4 5 6 1 4 5 12 12 6 7 6 6 7 9 19 20 13 9 14 19 23 23 19 15 15 14 13 17 20 21 18 14 12 11 13 16 17 17 16 17 18 18 19 19 17 16 16 16 16 15
7 8 6 5 5 4 4 3 2 4 8 6 5 7 8 5 2 2 7 11 8 10 15 18 21 19 20 19 17 17 18 18 15 12 13 16 18 18 17 15 16 18 19 20 20 19 18 15 14 14 14 15 15 15
Wind_Direction
304 301 298 296 295 298 299 307 290 296 293 289 282 280 277 263 260 263 269 267 252 258 272 272 265 267 276 283 259 331 333 323 335 2 204 247 233 319 115 169 192 215 291 227 253 41 201 356 345 162 148 126 90 73
308 305 304 302 299 296 295 306 296 295 298 284 277 274 268 264 269 254 261 281 244 245 260 267 275 271 260 247 271 283 284 296 253 312 273 273 319 343 160 133 168 186 191 156 188 45 310 347 3 118 117 102 92 81
310 302 297 296 296 290 293 297 303 286 292 292 272 271 268 270 256 254 268 272 266 279 287 274 272 292 255 255 242 224 247 236 7 328 255 252 263 90 29 44 124 77 145 126 116 347 346 25 67 90 90 87 84 78
316 309 305 299 293 285 290 301 301 282 295 277 281 272 271 268 271 254 264 277 242 277 275 291 314 283 268 265 234 226 231 267 299 303 234 237 169 193 242 219 120 352 128 153 74 181 81 57 74 91 91 85 78 73
323 311 303 302 289 283 280 299 290 288 290 265 280 272 260 279 267 270 274 269 239 232 295 291 309 273 223 230 214 212 230 249 282 292 253 241 256 147 230 143 33 352 309 148 185 188 138 131 108 104 92 88 87 82
324 314 303 300 290 276 291 299 294 299 288 267 283 263 275 283 280 305 295 258 201 218 286 293 314 298 312 250 211 217 244 249 240 276 273 311 323 5 119 85 347 354 35 192 116 107 105 111 110 95 94 88 86 81
332 331 322 292 294 286 285 311 294 301 289 273 275 276 291 284 282 270 278 148 157 201 259 297 292 276 343 177 204 221 215 230 231 263 321 11 353 17 33 37 332 23 84 88 100 106 81 94 87 88 83 79 74 70
341 343 343 339 332 319 298 304 300 318 294 283 275 280 291 286 290 288 280 192 205 259 264 279 277 316 333 235 219 176 182 201 224 257 118 121 25 37 58 355 4 77 94 98 97 95 90 86 79 67 61 52 43 39
343 350 355 359 357 356 10 352 330 322 290 306 300 311 308 302 320 323 345 14 214 231 276 254 276 289 339 264 197 171 182 127 107 70 20 82 19 55 335 318 24 53 93 99 97 92 92 77 65 52 38 33 25 22
1 18 35 42 47 33 27 28 31 48 356 347 344 338 347 3 290 276 268 229 209 224 227 240 259 268 333 353 350 66 106 165 72 305 75 69 75 47 33 39 38 59 69 99 75 49 47 48 41 36 36 29 24 14
36 35 47 62 43 37 36 57 61 41 34 10 356 320 330 324 290 257 260 229 218 262 217 245 248 258 298 65 265 207 202 150 91 250 97 88 77 359 39 62 60 60 60 62 65 61 46 32 23 16 12 6 352 339
38 34 38 45 24 35 64 60 34 24 8 346 327 323 324 311 299 3 255 276 214 251 236 232 291 244 299 290 224 328 82 46 93 162 78 90 76 10 41 59 67 63 59 53 43 38 32 26 17 2 352 347 344 345
40 42 40 47 44 71 72 23 25 6 346 355 351 328 342 356 40 21 354 329 329 288 319 323 313 333 312 353 45 35 40 55 129 48 68 66 131 54 54 66 60 54 47 48 51 48 39 25 8 355 348 340 335 332
44 44 37 36 52 83 34 43 3 14 26 14 4 356 19 342 18 272 264 261 293 287 312 297 305 35 348 15 50 85 293 59 68 64 77 351 67 66 71 69 65 55 49 43 43 37 27 19 15 7 2 351 335 329
29 32 29 56 60 39 2 353 348 1 14 22 358 350 24 319 310 305 314 312 357 340 349 346 4 18 8 42 15 35 44 37 26 93 94 118 112 113 69 59 48 34 34 36 38 32 22 15 15 10 3 355 354 343
48 68 57 38 16 359 350 353 11 24 17 13 10 334 338 22 342 353 1 354 3 1 2 10 25 41 37 21 53 20 25 52 77 57 85 84 105 110 86 49 31 21 16 9 0 355 355 360 5 17 22 14 360 354
58 50 26 7 355 352 6 22 26 32 22 18 335 334 343 306 281 332 348 357 3 17 27 8 45 7 309 46 43 23 38 27 70 69 71 69 99 87 79 40 11 6 5 12 6 1 353 358 353 345 2 18 21 28
43 25 9 1 4 14 20 25 40 35 25 6 316 343 349 355 360 16 12 11 9 13 23 62 50 33 43 38 38 18 36 30 35 31 77 80 76 64 42 11 3 6 7 0 360 10 1 2 11 4 1 2 356 350
9 7 4 2 3 11 19 29 24 21 345 350 351 3 10 12 19 15 12 14 25 35 55 57 60 30 37 34 39 31 38 28 5 10 98 80 46 17 11 1 352 352 348 345 353 355 348 347 345 355 6 348 353 351
346 349 348 354 4 11 25 32 14 352 357 334 351 350 350 2 4 7 9 11 24 41 41 48 76 99 82 62 44 30 17 11 9 24 108 60 26 30 24 16 13 353 339 2 7 352 344 357 3 336 331 330 328 333
339 344 346 352 7 28 34 6 2 354 332 334 345 346 327 349 7 8 5 7 37 40 48 77 83 73 17 346 339 335 347 344 351 0 359 5 45 13 11 20 38 36 30 16 2 4 345 337 330 317 302 311 315 318
335 343 343 351 5 9 19 6 325 325 319 321 341 351 2 359 350 3 343 20 44 32 42 10 339 329 332 339 346 348 15 36 21 17 13 24 30 23 72 78 70 62 52 45 35 26 15 9 360 351 337 330 327 324
342 346 350 349 336 2 17 354 7 3 20 330 350 19 8 355 341 347 27 10 3 8 9 27 38 42 56 56 74 44 21 5 20 137 190 218 246 123 100 83 49 31 21 13 3 351 342 336 329 324 319 313 310 308
343 346 353 5 11 342 350 347 357 358 349 14 5 341 334 328 350 19 342 348 48 64 62 63 61 68 81 16 24 40 44 66 39 57 91 178 177 164 9 3 0 3 8 4 356 351 345 339 332 329 332 336 336 333
348 1 343 340 332 353 317 324 353 343 328 127 93 276 320 352 360 8 338 272 314 343 28 11 18 16 25 35 36 33 39 33 18 11 21 13 290 321 331 336 349 0 359 354 353 349 343 336 338 344 347 349 352 356
1 319 51 329 328 275 303 327 289 272 272 258 224 232 226 244 76 323 281 341 353 42 47 55 54 65 68 63 55 42 32 20 7 356 349 339 309 325 342 348 349 348 349 350 348 345 337 336 341 345 347 339 334 338
318 318 301 287 276 283 286 263 264 279 286 264 188 211 350 66 56 291 6 43 74 75 67 51 61 57 67 50 36 21 8 0 350 333 317 298 302 308 324 337 341 339 340 342 337 327 324 331 333 331 323 325 322 327
262 269 257 308 240 241 275 282 256 244 251 188 128 33 55 12 320 347 354 57 88 113 69 83 71 58 45 33 18 10 5 1 355 350 342 328 321 313 316 320 321 324 329 334 317 304 316 323 323 322 320 317 309 304
266 295 279 275 247 228 230 242 277 324 149 166 115 83 38 41 19 69 90 96 102 83 80 68 56 41 30 21 11 4 359 356 355 1 356 348 338 327 312 310 317 321 324 316 307 313 319 321 323 326 328 326 320 306
303 337 267 285 347 331 3 15 74 109 101 80 98 89 69 63 66 73 73 63 44 47 44 38 30 19 12 4 2 0 353 348 350 353 353 347 338 325 322 325 329 334 331 325 325 325 323 324 324 323 324 323 320 311
317 323 302 284 259 247 285 342 168 161 101 121 118 106 109 90 69 64 56 42 25 6 12 12 8 6 2 356 353 349 347 345 343 341 339 333 330 329 327 329 334 335 335 336 335 334 335 336 340 341 341 341 339 339
329 349 330 315 306 311 317 130 130 122 121 120 40 96 92 50 40 21 27 23 7 353 3 5 2 2 356 346 342 346 338 333 333 340 344 348 352 356 350 341 335 332 335 338 340 341 341 341 341 340 341 343 345 345
307 317 309 303 307 328 350 16 65 77 61 58 57 346 65 81 118 307 341 349 7 3 1 359 356 348 340 338 341 342 344 343 345 351 354 353 352 351 347 341 337 337 336 337 339 342 347 353 355 355 354 350 349 347
Height
1467 1465 1461 1459 1456 1454 1453 1451 1448 1447 1446 1446 1445 1445 1445 1445 1446 1446 1446 1446 1446 1443 1431 1428 1429 1428 1425 1424 1422 1414 1409 1405 1400 1401 1402 1397 1394 1387 1385 1386 1402 1410 1422 1419 1414 1408 1402 1390 1384 1388 1392 1395 1398 1399
1462 1458 1455 1453 1450 1448 1447 1445 1444 1443 1442 1441 1441 1440 1440 1440 1441 1441 1441 1442 1442 1440 1426 1420 1418 1418 1417 1417 1420 1419 1415 1416 1407 1409 1404 1401 1394 1391 1389 1395 1390 1410 1410 1409 1415 1413 1404 1397 1394 1394 1393 1387 1394 1395
1456 1453 1450 1447 1444 1443 1442 1441 1440 1439 1438 1437 1436 1436 1436 1436 1437 1437 1437 1438 1438 1435 1423 1415 1403 1405 1406 1406 1411 1419 1409 1408 1406 1409 1406 1402 1396 1394 1393 1390 1385 1387 1389 1401 1406 1407 1407 1403 1400 1399 1395 1392 1395 1399
1450 1446 1443 1441 1439 1438 1438 1437 1435 1435 1434 1433 1434 1433 1433 1433 1434 1434 1434 1434 1435 1433 1427 1405 1400 1400 1401 1400 1400 1400 1404 1404 1407 1402 1403 1401 1396 1393 1394 1392 1391 1394 1394 1395 1406 1409 1408 1405 1407 1406 1402 1397 1399 1400
1445 1441 1438 1435 1435 1434 1434 1433 1432 1431 1431 1431 1431 1431 1431 1431 1431 1431 1430 1429 1431 1435 1426 1410 1398 1394 1395 1395 1397 1400 1402 1405 1404 1402 1400 1393 1392 1396 1396 1394 1399 1403 1399 1392 1400 1392 1389 1397 1417 1410 1405 1403 1406 1410
1440 1436 1433 1431 1431 1431 1431 1431 1430 1429 1428 1429 1430 1430 1429 1429 1429 1428 1426 1425 1427 1429 1428 1416 1400 1392 1392 1392 1395 1398 1400 1402 1404 1401 1396 1392 1392 1395 1398 1402 1404 1400 1396 1393 1393 1399 1404 1407 1407 1412 1403 1408 1413 1413
1436 1433 1430 1428 1429 1429 1429 1429 1428 1428 1428 1428 1428 1428 1428 1428 1427 1428 1428 1426 1427 1429 1428 1418 1405 1394 1394 1395 1396 1397 1399 1400 1401 1399 1398 1396 1395 1398 1401 1411 1412 1407 1403 1403 1401 1404 1411 1414 1414 1413 1416 1414 1415 1415
1436 1432 1430 1429 1429 1429 1428 1428 1428 1427 1427 1427 1428 1427 1427 1426 1425 1425 1425 1425 1427 1428 1427 1422 1407 1395 1392 1391 1392 1393 1394 1396 1397 1397 1400 1401 1403 1406 1420 1421 1418 1415 1412 1412 1412 1412 1414 1418 1415 1417 1416 1417 1418 1420
1435 1433 1431 1430 1430 1429 1429 1428 1428 1427 1427 1427 1427 1426 1425 1425 1425 1425 1423 1424 1426 1430 1424 1419 1412 1401 1391 1390 1391 1392 1393 1396 1396 1399 1401 1404 1413 1420 1426 1424 1421 1415 1415 1416 1418 1419 1423 1420 1420 1419 1420 1419 1422 1423
1437 1434 1433 1433 1432 1431 1431 1430 1429 1429 1428 1428 1427 1427 1425 1425 1425 1425 1425 1425 1424 1423 1421 1416 1408 1404 1396 1391 1390 1392 1392 1396 1404 1405 1403 1412 1424 1428 1427 1426 1425 1421 1419 1421 1418 1418 1421 1420 1418 1420 1420 1423 1422 1424
1440 1439 1438 1437 1436 1434 1433 1432 1432 1431 1430 1429 1428 1427 1426 1425 1425 1424 1423 1423 1420 1418 1414 1408 1404 1402 1396 1396 1394 1393 1394 1395 1403 1407 1407 1418 1428 1433 1432 1431 1427 1425 1424 1422 1422 1421 1421 1420 1419 1421 1422 1423 1423 1423
1444 1443 1441 1440 1439 1438 1437 1435 1434 1434 1433 1432 1429 1428 1426 1425 1424 1425 1423 1420 1419 1413 1408 1405 1401 1400 1395 1394 1393 1392 1392 1394 1402 1404 1412 1424 1433 1434 1432 1431 1431 1429 1426 1424 1422 1421 1422 1423 1423 1423 1423 1421 1422 1422
1448 1447 1445 1443 1442 1441 1440 1439 1437 1435 1433 1432 1431 1429 1429 1427 1428 1425 1423 1417 1416 1410 1407 1405 1403 1399 1396 1394 1393 1393 1397 1404 1403 1408 1423 1430 1433 1433 1431 1430 1426 1423 1424 1425 1425 1425 1425 1426 1425 1424 1423 1422 1422 1421
1454 1451 1449 1447 1445 1444 1443 1441 1440 1436 1434 1434 1433 1431 1431 1431 1427 1426 1424 1421 1415 1410 1407 1405 1402 1401 1399 1395 1400 1405 1404 1401 1408 1420 1430 1431 1431 1432 1431 1430 1431 1432 1432 1430 1428 1429 1430 1430 1428 1426 1424 1422 1422 1421
1458 1455 1453 1451 1450 1448 1446 1443 1440 1438 1437 1436 1435 1433 1430 1432 1429 1424 1421 1417 1414 1410 1407 1405 1404 1403 1405 1405 1407 1405 1410 1419 1421 1423 1431 1434 1435 1436 1436 1436 1436 1436 1436 1435 1435 1435 1434 1432 1430 1428 1426 1425 1423 1421
1461 1460 1457 1455 1454 1451 1447 1444 1442 1440 1439 1439 1438 1433 1432 1431 1427 1422 1419 1415 1414 1412 1410 1410 1409 1410 1415 1417 1416 1425 1420 1428 1430 1432 1435 1436 1438 1438 1438 1439 1439 1439 1438 1438 1437 1435 1434 1432 1430 1429 1427 1425 1424 1423
1466 1463 1461 1458 1455 1451 1448 1445 1444 1444 1445 1445 1444 1440 1438 1436 1434 1430 1426 1421 1416 1413 1416 1414 1418 1423 1422 1424 1430 1431 1433 1435 1435 1438 1438 1438 1438 1439 1440 1441 1440 1439 1438 1436 1436 1434 1432 1431 1429 1428 1427 1427 1425 1423
1468 1466 1463 1460 1455 1452 1450 1448 1449 1450 1450 1450 1448 1444 1441 1438 1436 1433 1430 1426 1421 1419 1419 1424 1425 1429 1433 1434 1437 1439 1438 1438 1438 1438 1439 1439 1440 1440 1440 1439 1439 1439 1438 1437 1435 1433 1433 1431 1429 1428 1427 1426 1425 1423
1471 1468 1465 1462 1457 1455 1454 1454 1455 1454 1453 1452 1450 1447 1444 1441 1439 1437 1434 1430 1427 1425 1425 1428 1434 1438 1441 1441 1442 1441 1441 1440 1440 1439 1439 1440 1440 1440 1439 1439 1438 1437 1435 1434 1433 1431 1430 1429 1429 1428 1427 1426 1425 1423
1473 1471 1468 1464 1461 1459 1458 1459 1459 1458 1456 1455 1452 1448 1446 1445 1443 1440 1437 1434 1431 1430 1433 1438 1442 1443 1443 1443 1443 1443 1443 1442 1441 1440 1441 1442 1441 1441 1439 1437 1436 1435 1434 1433 1431 1430 1428 1428 1427 1427 1426 1425 1424 1422
1473 1471 1467 1465 1463 1462 1463 1462 1461 1461 1459 1457 1454 1451 1449 1447 1445 1443 1441 1439 1437 1440 1443 1445 1445 1445 1445 1444 1444 1443 1443 1443 1443 1442 1442 1441 1441 1440 1438 1436 1435 1434 1433 1431 1430 1429 1428 1427 1426 1425 1424 1423 1421 1420
1473 1471 1468 1465 1465 1464 1464 1465 1464 1463 1461 1459 1457 1455 1453 1451 1450 1449 1446 1444 1446 1447 1447 1447 1446 1445 1444 1443 1443 1442 1442 1442 1442 1442 1442 1441 1440 1439 1437 1437 1436 1434 1433 1432 1431 1430 1429 1428 1426 1424 1422 1421 1419 1417
1473 1471 1469 1468 1467 1466 1468 1465 1464 1463 1462 1459 1457 1456 1456 1456 1454 1452 1450 1450 1450 1449 1447 1446 1445 1444 1444 1444 1443 1443 1443 1442 1441 1440 1440 1440 1440 1439 1438 1438 1438 1436 1435 1434 1433 1431 1429 1427 1424 1422 1420 1418 1416 1414
1474 1473 1471 1470 1470 1470 1469 1468 1466 1466 1464 1463 1463 1461 1459 1458 1457 1455 1453 1452 1452 1450 1450 1448 1446 1446 1447 1445 1444 1443 1442 1441 1441 1440 1439 1439 1439 1439 1439 1438 1437 1436 1435 1434 1432 1429 1426 1423 1420 1418 1416 1414 1412 1409
1477 1476 1475 1472 1473 1472 1470 1468 1468 1467 1466 1466 1466 1465 1461 1460 1458 1458 1457 1454 1453 1452 1452 1451 1450 1449 1447 1447 1446 1445 1445 1445 1444 1443 1442 1442 1442 1441 1440 1438 1437 1436 1434 1431 1428 1425 1422 1420 1418 1416 1413 1410 1407 1405
1477 1475 1475 1473 1473 1473 1471 1469 1468 1468 1467 1465 1464 1464 1464 1464 1461 1461 1458 1457 1454 1453 1452 1452 1451 1450 1450 1450 1450 1449 1449 1448 1447 1446 1444 1443 1442 1441 1439 1438 1437 1435 1433 1430 1427 1423 1421 1419 1416 1414 1412 1410 1408 1406
1480 1476 1474 1473 1473 1472 1470 1468 1467 1467 1465 1463 1463 1463 1463 1463 1464 1461 1459 1457 1457 1456 1456 1456 1455 1455 1455 1455 1454 1453 1452 1450 1447 1445 1443 1441 1441 1439 1438 1437 1435 1433 1430 1427 1425 1422 1419 1417 1415 1413 1411 1409 1407 1405
1478 1476 1475 1473 1471 1471 1470 1467 1466 1464 1462 1462 1463 1463 1464 1464 1465 1463 1461 1461 1460 1459 1459 1460 1459 1459 1459 1458 1456 1454 1452 1449 1446 1444 1442 1441 1440 1439 1437 1435 1433 1430 1427 1424 1422 1419 1417 1414 1411 1409 1407 1404 1402 1400
1476 1474 1473 1471 1470 1469 1467 1466 1463 1462 1462 1462 1462 1465 1466 1468 1468 1466 1466 1465 1466 1464 1464 1463 1463 1463 1461 1459 1456 1453 1449 1446 1444 1443 1441 1440 1439 1437 1434 1432 1429 1427 1424 1422 1419 1417 1414 1411 1408 1405 1403 1400 1398 1396
1474 1474 1471 1468 1468 1467 1466 1465 1464 1464 1464 1465 1467 1470 1471 1471 1471 1471 1471 1471 1471 1470 1470 1468 1466 1463 1460 1457 1455 1452 1449 1446 1444 1442 1440 1438 1436 1433 1430 1427 1425 1422 1420 1418 1415 1413 1410 1408 1405 1402 1399 1396 1393 1391
1474 1472 1471 1469 1466 1465 1465 1464 1464 1465 1467 1468 1468 1467 1469 1473 1474 1473 1475 1476 1476 1474 1471 1469 1465 1462 1459 1456 1454 1451 1449 1447 1444 1442 1440 1437 1434 1431 1427 1425 1422 1420 1417 1415 1412 1409 1406 1403 1400 1397 1394 1392 1389 1387
1475 1474 1474 1470 1466 1465 1464 1463 1463 1465 1468 1469 1472 1471 1474 1475 1474 1479 1480 1477 1475 1473 1471 1468 1465 1462 1460 1457 1455 1451 1448 1445 1441 1439 1436 1433 1431 1429 1427 1424 1421 1418 1415 1412 1409 1406 1403 1400 1397 1394 1392 1389 1387 1384
1475 1473 1471 1470 1466 1464 1464 1465 1465 1467 1469 1474 1473 1476 1476 1479 1482 1482 1480 1478 1477 1474 1472 1470 1467 1464 1460 1456 1453 1450 1446 1443 1440 1438 1436 1433 1430 1428 1425 1422 1419 1416 1413 1410 1406 1403 1400 1398 1395 1393 1390 1388 1385 1383